CQH6837 ZSWZ-ZGSZ

Flight info

Callsign CQH6837
Flight time 1h 30m
Altitude 36100
Route RUPOX B221 LJG A470 BEBEM R200 GUBLO
Aircraft A320/M-SDE3FGHIRWY/LB1

Departure

Time 2026-05-05 04:54
Airport Wenzhou Longwan International Airport (ZSWZ)

Arrival

Time 2026-05-05 06:25
Airport Shenzhen Bao'an International Airport (ZGSZ)
Time Latitude Longitude Altitude Speed Heading
2026-05-05 04:39 27.90993 120.84751 17 ft 0 kts 232°
2026-05-05 04:47 27.90995 120.84753 17 ft 3 kts 232°
2026-05-05 04:47 27.91011 120.84777 16 ft 4 kts 232°
2026-05-05 04:48 27.91025 120.84798 15 ft 4 kts 228°
2026-05-05 04:48 27.91045 120.84809 16 ft 4 kts 158°
2026-05-05 04:48 27.91066 120.84792 16 ft 4 kts 127°
2026-05-05 04:48 27.91073 120.84782 17 ft 0 kts 118°
2026-05-05 04:50 27.91069 120.84789 17 ft 6 kts 118°
2026-05-05 04:50 27.91024 120.84886 15 ft 16 kts 118°
2026-05-05 04:50 27.91001 120.85001 14 ft 16 kts 49°
2026-05-05 04:51 27.91132 120.85087 14 ft 24 kts 28°
2026-05-05 04:51 27.91286 120.85180 14 ft 26 kts 28°
2026-05-05 04:51 27.91448 120.85277 14 ft 27 kts 28°
2026-05-05 04:51 27.91617 120.85381 13 ft 28 kts 28°
2026-05-05 04:52 27.91790 120.85487 13 ft 26 kts 28°
2026-05-05 04:52 27.91956 120.85586 13 ft 27 kts 28°
2026-05-05 04:52 27.92127 120.85691 13 ft 28 kts 28°
2026-05-05 04:52 27.92270 120.85780 13 ft 0 kts 29°
2026-05-05 04:53 27.92273 120.85784 11 ft 4 kts 48°
2026-05-05 04:53 27.92192 120.85878 13 ft 21 kts 139°
2026-05-05 04:53 27.92065 120.85935 16 ft 21 kts 190°
2026-05-05 04:53 27.91866 120.85828 14 ft 59 kts 207°
2026-05-05 04:54 27.91306 120.85493 15 ft 123 kts 208°
2026-05-05 04:54 27.90383 120.84937 44 ft 169 kts 207°
2026-05-05 04:54 27.89365 120.84316 692 ft 167 kts 207°
2026-05-05 04:54 27.88337 120.83702 1388 ft 167 kts 208°
2026-05-05 04:55 27.87298 120.83076 2026 ft 175 kts 207°
2026-05-05 04:55 27.86152 120.82386 2446 ft 199 kts 207°
2026-05-05 04:55 27.84862 120.81609 2860 ft 220 kts 206°
2026-05-05 04:55 27.83437 120.80752 3352 ft 242 kts 207°
2026-05-05 04:56 27.82427 120.80142 3914 ft 246 kts 207°
2026-05-05 04:56 27.80905 120.79221 4846 ft 250 kts 208°
2026-05-05 04:56 27.79361 120.78288 5744 ft 254 kts 208°
2026-05-05 04:56 27.77816 120.77336 6598 ft 258 kts 214°
2026-05-05 04:57 27.76613 120.75861 7363 ft 257 kts 247°
2026-05-05 04:57 27.76310 120.73910 8264 ft 254 kts 276°
2026-05-05 04:57 27.76523 120.71933 9260 ft 252 kts 272°
2026-05-05 04:57 27.76376 120.69974 10175 ft 251 kts 260°
2026-05-05 04:58 27.76029 120.68045 11054 ft 250 kts 258°
2026-05-05 04:58 27.75652 120.66137 11880 ft 249 kts 258°
2026-05-05 04:58 27.75168 120.64266 12710 ft 250 kts 247°
2026-05-05 04:58 27.74198 120.62614 13452 ft 259 kts 231°
2026-05-05 04:59 27.72712 120.61288 13650 ft 288 kts 218°
2026-05-05 04:59 27.70950 120.60027 13803 ft 312 kts 217°
2026-05-05 04:59 27.69053 120.58681 13946 ft 334 kts 217°
2026-05-05 04:59 27.67027 120.57248 14164 ft 350 kts 216°
2026-05-05 05:00 27.64942 120.55777 14685 ft 354 kts 216°
2026-05-05 05:00 27.62850 120.54301 15286 ft 357 kts 217°
2026-05-05 05:00 27.60740 120.52806 15904 ft 359 kts 217°
2026-05-05 05:00 27.58626 120.51301 16519 ft 361 kts 217°
2026-05-05 05:01 27.56498 120.49783 17138 ft 363 kts 217°
2026-05-05 05:01 27.54396 120.48279 17739 ft 365 kts 217°
2026-05-05 05:01 27.52213 120.46719 18349 ft 368 kts 217°
2026-05-05 05:01 27.50072 120.45192 18869 ft 370 kts 217°
2026-05-05 05:02 27.47891 120.43639 19389 ft 372 kts 217°
2026-05-05 05:02 27.45697 120.42079 19891 ft 374 kts 217°
2026-05-05 05:02 27.43488 120.40513 20387 ft 376 kts 217°
2026-05-05 05:02 27.41266 120.38936 20860 ft 378 kts 217°
2026-05-05 05:03 27.39041 120.37355 21313 ft 380 kts 217°
2026-05-05 05:03 27.36794 120.35759 21724 ft 382 kts 217°
2026-05-05 05:03 27.34542 120.34160 22127 ft 384 kts 217°
2026-05-05 05:03 27.32268 120.32547 22577 ft 386 kts 217°
2026-05-05 05:04 27.30006 120.30943 23006 ft 388 kts 217°
2026-05-05 05:04 27.27702 120.29311 23424 ft 390 kts 217°
2026-05-05 05:04 27.25399 120.27683 23789 ft 392 kts 217°
2026-05-05 05:04 27.23092 120.26053 24230 ft 393 kts 218°
2026-05-05 05:05 27.20766 120.24413 24481 ft 394 kts 218°
2026-05-05 05:05 27.18445 120.22779 24778 ft 395 kts 218°
2026-05-05 05:05 27.16135 120.21153 25059 ft 397 kts 218°
2026-05-05 05:05 27.13796 120.19506 25375 ft 398 kts 218°
2026-05-05 05:06 27.11439 120.17846 25667 ft 400 kts 218°
2026-05-05 05:06 27.09084 120.16180 25981 ft 401 kts 218°
2026-05-05 05:06 27.06729 120.14504 26311 ft 402 kts 218°
2026-05-05 05:06 27.04352 120.12807 26606 ft 404 kts 218°
2026-05-05 05:07 27.01985 120.11117 26911 ft 405 kts 218°
2026-05-05 05:07 26.99598 120.09415 27188 ft 406 kts 218°
2026-05-05 05:07 26.97207 120.07717 27439 ft 407 kts 218°
2026-05-05 05:07 26.94807 120.06019 27737 ft 408 kts 218°
2026-05-05 05:08 26.92400 120.04318 28017 ft 409 kts 218°
2026-05-05 05:08 26.89993 120.02614 28289 ft 410 kts 218°
2026-05-05 05:08 26.87580 120.00905 28528 ft 411 kts 218°
2026-05-05 05:08 26.85163 119.99197 28830 ft 410 kts 218°
2026-05-05 05:09 26.82747 119.97492 29195 ft 409 kts 218°
2026-05-05 05:09 26.80343 119.95797 29563 ft 407 kts 218°
2026-05-05 05:09 26.77945 119.94107 29916 ft 406 kts 218°
2026-05-05 05:09 26.75568 119.92431 30250 ft 405 kts 218°
2026-05-05 05:10 26.73168 119.90741 30527 ft 404 kts 219°
2026-05-05 05:10 26.70791 119.89068 30828 ft 403 kts 218°
2026-05-05 05:10 26.68420 119.87399 31159 ft 402 kts 219°
2026-05-05 05:10 26.66059 119.85733 31513 ft 401 kts 219°
2026-05-05 05:11 26.63706 119.84073 31818 ft 399 kts 219°
2026-05-05 05:11 26.61390 119.82443 32112 ft 398 kts 219°
2026-05-05 05:11 26.59045 119.80795 32410 ft 397 kts 219°
2026-05-05 05:11 26.56711 119.79157 32706 ft 396 kts 219°
2026-05-05 05:12 26.54380 119.77521 32984 ft 395 kts 219°
2026-05-05 05:12 26.52052 119.75888 33243 ft 394 kts 219°
2026-05-05 05:12 26.49728 119.74256 33468 ft 395 kts 219°
2026-05-05 05:12 26.47404 119.72623 33744 ft 394 kts 220°
2026-05-05 05:13 26.45082 119.70993 34049 ft 393 kts 219°
2026-05-05 05:13 26.42775 119.69376 34318 ft 392 kts 219°
2026-05-05 05:13 26.40468 119.67757 34546 ft 391 kts 219°
2026-05-05 05:13 26.38164 119.66141 34766 ft 391 kts 219°
2026-05-05 05:14 26.35860 119.64527 34976 ft 391 kts 219°
2026-05-05 05:14 26.33557 119.62917 35182 ft 391 kts 219°
2026-05-05 05:14 26.31264 119.61315 35355 ft 393 kts 220°
2026-05-05 05:14 26.28946 119.59691 35556 ft 392 kts 220°
2026-05-05 05:15 26.26638 119.58076 35763 ft 392 kts 220°
2026-05-05 05:15 26.24329 119.56464 35980 ft 391 kts 219°
2026-05-05 05:15 26.21917 119.55003 36157 ft 398 kts 213°
2026-05-05 05:15 26.19297 119.53899 36215 ft 409 kts 206°
2026-05-05 05:16 26.16569 119.52974 36215 ft 410 kts 206°
2026-05-05 05:16 26.11112 119.51118 36213 ft 410 kts 206°
2026-05-05 05:17 26.05658 119.49261 36217 ft 411 kts 206°
2026-05-05 05:17 26.00215 119.47412 36209 ft 400 kts 206°
2026-05-05 05:17 25.97639 119.46554 36211 ft 373 kts 207°
2026-05-05 05:18 25.95228 119.45761 36209 ft 353 kts 207°
2026-05-05 05:18 25.90616 119.44192 36206 ft 340 kts 208°
2026-05-05 05:19 25.86152 119.42654 36211 ft 332 kts 208°
2026-05-05 05:19 25.81810 119.41174 36209 ft 324 kts 208°
2026-05-05 05:20 25.77555 119.39716 36209 ft 314 kts 211°
2026-05-05 05:20 25.75584 119.38794 36204 ft 301 kts 218°
2026-05-05 05:20 25.73807 119.37643 36204 ft 290 kts 224°
2026-05-05 05:20 25.72233 119.36307 36202 ft 280 kts 230°
2026-05-05 05:21 25.70861 119.34820 36203 ft 271 kts 234°
2026-05-05 05:21 25.69589 119.33306 36204 ft 267 kts 234°
2026-05-05 05:21 25.68324 119.31808 36135 ft 265 kts 234°
2026-05-05 05:21 25.67057 119.30306 35943 ft 267 kts 234°
2026-05-05 05:22 25.65777 119.28789 35761 ft 269 kts 234°
2026-05-05 05:22 25.64503 119.27279 35678 ft 267 kts 234°
2026-05-05 05:22 25.63237 119.25784 35638 ft 264 kts 234°
2026-05-05 05:22 25.61983 119.24307 35522 ft 264 kts 234°
2026-05-05 05:23 25.60718 119.22815 35332 ft 266 kts 234°
2026-05-05 05:23 25.59449 119.21322 35217 ft 266 kts 234°
2026-05-05 05:23 25.58205 119.19860 35181 ft 264 kts 233°
2026-05-05 05:23 25.56952 119.18392 35162 ft 260 kts 234°
2026-05-05 05:24 25.55714 119.16948 35118 ft 258 kts 234°
2026-05-05 05:24 25.54473 119.15499 34924 ft 262 kts 233°
2026-05-05 05:24 25.53211 119.14022 34746 ft 265 kts 233°
2026-05-05 05:24 25.51946 119.12540 34738 ft 262 kts 233°
2026-05-05 05:25 25.50702 119.11089 34766 ft 258 kts 233°
2026-05-05 05:25 25.49466 119.09652 34703 ft 258 kts 233°
2026-05-05 05:25 25.48224 119.08208 34544 ft 261 kts 233°
2026-05-05 05:25 25.46969 119.06747 34416 ft 262 kts 233°
2026-05-05 05:26 25.45713 119.05286 34400 ft 260 kts 233°
2026-05-05 05:26 25.44475 119.03853 34409 ft 257 kts 233°
2026-05-05 05:26 25.43240 119.02428 34326 ft 257 kts 233°
2026-05-05 05:26 25.41995 119.00990 34189 ft 260 kts 233°
2026-05-05 05:27 25.40746 118.99547 34106 ft 260 kts 233°
2026-05-05 05:27 25.39501 118.98112 34090 ft 257 kts 233°
2026-05-05 05:27 25.37024 118.95272 34000 ft 257 kts 233°
2026-05-05 05:28 25.35795 118.93864 33861 ft 259 kts 233°
2026-05-05 05:28 25.34533 118.92413 33523 ft 268 kts 233°
2026-05-05 05:28 25.33268 118.90874 33339 ft 271 kts 234°
2026-05-05 05:28 25.32037 118.89292 33173 ft 274 kts 236°
2026-05-05 05:29 25.30809 118.87619 33047 ft 285 kts 237°
2026-05-05 05:29 25.29499 118.85936 33027 ft 296 kts 234°
2026-05-05 05:29 25.28061 118.84218 33030 ft 308 kts 233°
2026-05-05 05:29 25.26561 118.82467 33028 ft 319 kts 232°
2026-05-05 05:30 25.25013 118.80655 33022 ft 330 kts 232°
2026-05-05 05:30 25.23421 118.78773 33025 ft 340 kts 232°
2026-05-05 05:30 25.20118 118.74831 33023 ft 359 kts 232°
2026-05-05 05:31 25.16666 118.70662 33021 ft 376 kts 232°
2026-05-05 05:31 25.13067 118.66321 33017 ft 389 kts 232°
2026-05-05 05:32 25.09349 118.61845 33022 ft 400 kts 232°
2026-05-05 05:32 25.05505 118.57356 33018 ft 404 kts 231°
2026-05-05 05:33 25.01607 118.52932 33022 ft 405 kts 231°
2026-05-05 05:33 24.97684 118.48473 33019 ft 405 kts 231°
2026-05-05 05:34 24.93770 118.43990 33019 ft 406 kts 232°
2026-05-05 05:34 24.89863 118.39503 33020 ft 406 kts 232°
2026-05-05 05:35 24.85941 118.35010 33019 ft 407 kts 231°
2026-05-05 05:35 24.82010 118.30530 33017 ft 407 kts 231°
2026-05-05 05:36 24.78084 118.26047 33021 ft 407 kts 232°
2026-05-05 05:36 24.74161 118.21564 33011 ft 407 kts 232°
2026-05-05 05:37 24.70225 118.17084 33011 ft 407 kts 231°
2026-05-05 05:37 24.66287 118.12605 33010 ft 407 kts 231°
2026-05-05 05:38 24.62344 118.08124 33007 ft 408 kts 231°
2026-05-05 05:38 24.58398 118.03655 33014 ft 408 kts 231°
2026-05-05 05:39 24.54498 117.99184 33008 ft 407 kts 233°
2026-05-05 05:39 24.50695 117.94575 33012 ft 408 kts 233°
2026-05-05 05:40 24.48802 117.92246 33221 ft 408 kts 233°
2026-05-05 05:40 24.46919 117.89936 33484 ft 407 kts 233°
2026-05-05 05:40 24.45029 117.87632 33731 ft 406 kts 233°
2026-05-05 05:40 24.43134 117.85335 33975 ft 406 kts 233°
2026-05-05 05:41 24.41240 117.83053 34191 ft 406 kts 233°
2026-05-05 05:41 24.39337 117.80768 34400 ft 406 kts 233°
2026-05-05 05:41 24.37440 117.78491 34624 ft 405 kts 233°
2026-05-05 05:41 24.35540 117.76212 34834 ft 405 kts 233°
2026-05-05 05:42 24.33632 117.73918 35033 ft 405 kts 233°
2026-05-05 05:42 24.31765 117.71669 35234 ft 405 kts 233°
2026-05-05 05:42 24.29865 117.69382 35425 ft 405 kts 233°
2026-05-05 05:42 24.27986 117.67122 35611 ft 405 kts 233°
2026-05-05 05:43 24.26084 117.64835 35808 ft 405 kts 233°
2026-05-05 05:43 24.24181 117.62549 35995 ft 405 kts 233°
2026-05-05 05:43 24.22280 117.60264 36122 ft 405 kts 233°
2026-05-05 05:43 24.20389 117.57993 36159 ft 405 kts 233°
2026-05-05 05:44 24.16607 117.53466 36157 ft 405 kts 233°
2026-05-05 05:44 24.12745 117.49061 36163 ft 410 kts 228°
2026-05-05 05:45 24.08498 117.44898 36162 ft 410 kts 228°
2026-05-05 05:45 24.04924 117.41400 36162 ft 411 kts 228°
2026-05-05 05:46 24.00653 117.37215 36164 ft 412 kts 228°
2026-05-05 05:46 23.96412 117.33056 36164 ft 412 kts 228°
2026-05-05 05:47 23.92138 117.28876 36165 ft 413 kts 228°
2026-05-05 05:47 23.87856 117.24695 36152 ft 412 kts 227°
2026-05-05 05:48 23.83592 117.20527 36149 ft 413 kts 228°
2026-05-05 05:48 23.79323 117.16362 36155 ft 413 kts 228°
2026-05-05 05:49 23.75066 117.12126 36151 ft 412 kts 230°
2026-05-05 05:49 23.71091 117.07651 36153 ft 410 kts 232°
2026-05-05 05:50 23.67218 117.03088 36149 ft 410 kts 232°
2026-05-05 05:50 23.63309 116.98555 36144 ft 410 kts 232°
2026-05-05 05:51 23.59347 116.94058 36145 ft 411 kts 231°
2026-05-05 05:51 23.55370 116.89562 36146 ft 412 kts 231°
2026-05-05 05:52 23.51391 116.85058 36153 ft 413 kts 231°
2026-05-05 05:52 23.47420 116.80545 36152 ft 413 kts 231°
2026-05-05 05:53 23.43350 116.76119 36152 ft 418 kts 224°
2026-05-05 05:53 23.38724 116.72268 36149 ft 419 kts 223°
2026-05-05 05:54 23.34081 116.68418 36144 ft 420 kts 223°
2026-05-05 05:54 23.29436 116.64567 36139 ft 420 kts 223°
2026-05-05 05:55 23.24790 116.60712 36138 ft 420 kts 223°
2026-05-05 05:55 23.20144 116.56856 36135 ft 420 kts 223°
2026-05-05 05:56 23.15532 116.53026 36132 ft 420 kts 223°
2026-05-05 05:56 23.10882 116.49173 36124 ft 421 kts 223°
2026-05-05 05:57 23.06217 116.45314 36126 ft 421 kts 223°
2026-05-05 05:57 23.01551 116.41460 36127 ft 422 kts 223°
2026-05-05 05:58 22.97276 116.37195 36129 ft 412 kts 238°
2026-05-05 05:58 22.94762 116.31727 36124 ft 404 kts 257°
2026-05-05 05:59 22.93945 116.25754 36128 ft 403 kts 264°
2026-05-05 05:59 22.93327 116.19703 36128 ft 404 kts 264°
2026-05-05 06:00 22.92705 116.13644 36132 ft 404 kts 264°
2026-05-05 06:00 22.92083 116.07589 36137 ft 405 kts 264°
2026-05-05 06:01 22.91463 116.01539 36139 ft 405 kts 264°
2026-05-05 06:01 22.90829 115.95461 36143 ft 405 kts 264°
2026-05-05 06:02 22.90186 115.89383 36132 ft 406 kts 264°
2026-05-05 06:02 22.89865 115.86343 35669 ft 406 kts 264°
2026-05-05 06:02 22.89553 115.83294 35205 ft 405 kts 264°
2026-05-05 06:03 22.89252 115.80260 34737 ft 405 kts 264°
2026-05-05 06:03 22.88954 115.77222 34283 ft 405 kts 264°
2026-05-05 06:03 22.88655 115.74187 33809 ft 405 kts 264°
2026-05-05 06:03 22.88357 115.71192 33302 ft 406 kts 264°
2026-05-05 06:04 22.88052 115.68145 32796 ft 407 kts 264°
2026-05-05 06:04 22.87745 115.65093 32305 ft 408 kts 264°
2026-05-05 06:04 22.87432 115.62025 31820 ft 410 kts 264°
2026-05-05 06:04 22.87119 115.58956 31331 ft 411 kts 264°
2026-05-05 06:05 22.86807 115.55868 30869 ft 413 kts 264°
2026-05-05 06:05 22.86494 115.52767 30406 ft 414 kts 264°
2026-05-05 06:05 22.86174 115.49651 29924 ft 416 kts 264°
2026-05-05 06:05 22.85855 115.46549 29397 ft 418 kts 264°
2026-05-05 06:06 22.85530 115.43408 28867 ft 420 kts 264°
2026-05-05 06:06 22.85206 115.40272 28351 ft 421 kts 264°
2026-05-05 06:06 22.84876 115.37095 27847 ft 423 kts 264°
2026-05-05 06:06 22.84548 115.33934 27349 ft 424 kts 264°
2026-05-05 06:07 22.84218 115.30744 26858 ft 426 kts 264°
2026-05-05 06:07 22.83888 115.27541 26378 ft 428 kts 264°
2026-05-05 06:07 22.83564 115.24397 25917 ft 427 kts 264°
2026-05-05 06:07 22.83234 115.21206 25447 ft 425 kts 264°
2026-05-05 06:08 22.82906 115.18034 24926 ft 422 kts 264°
2026-05-05 06:08 22.82579 115.14879 24367 ft 419 kts 264°
2026-05-05 06:08 22.82253 115.11755 23822 ft 416 kts 264°
2026-05-05 06:08 22.81928 115.08646 23214 ft 413 kts 264°
2026-05-05 06:09 22.81602 115.05564 22556 ft 410 kts 264°
2026-05-05 06:09 22.81278 115.02505 21940 ft 408 kts 263°
2026-05-05 06:09 22.80956 114.99458 21323 ft 405 kts 263°
2026-05-05 06:09 22.80636 114.96435 20715 ft 402 kts 263°
2026-05-05 06:10 22.80319 114.93435 20128 ft 400 kts 263°
2026-05-05 06:10 22.80006 114.90449 19811 ft 398 kts 263°
2026-05-05 06:10 22.79691 114.87460 19704 ft 398 kts 263°
2026-05-05 06:10 22.79374 114.84476 19732 ft 399 kts 263°
2026-05-05 06:11 22.79054 114.81486 19734 ft 399 kts 263°
2026-05-05 06:11 22.78734 114.78498 19731 ft 399 kts 263°
2026-05-05 06:11 22.78302 114.75548 19530 ft 392 kts 257°
2026-05-05 06:11 22.77437 114.72784 18472 ft 385 kts 245°
2026-05-05 06:12 22.76258 114.70195 17219 ft 382 kts 244°
2026-05-05 06:12 22.75083 114.67634 16136 ft 377 kts 244°
2026-05-05 06:12 22.73932 114.65105 15030 ft 373 kts 244°
2026-05-05 06:12 22.72796 114.62590 14265 ft 376 kts 244°
2026-05-05 06:13 22.71655 114.60055 13675 ft 373 kts 244°
2026-05-05 06:13 22.70523 114.57538 13025 ft 371 kts 244°
2026-05-05 06:13 22.69403 114.55048 12421 ft 368 kts 244°
2026-05-05 06:13 22.68311 114.52617 11953 ft 365 kts 244°
2026-05-05 06:14 22.67200 114.50144 11801 ft 366 kts 244°
2026-05-05 06:14 22.66081 114.47661 11829 ft 367 kts 244°
2026-05-05 06:14 22.64965 114.45188 11717 ft 364 kts 244°
2026-05-05 06:14 22.63965 114.42699 11305 ft 355 kts 251°
2026-05-05 06:15 22.63432 114.40179 11175 ft 329 kts 261°
2026-05-05 06:15 22.63117 114.37835 11049 ft 302 kts 261°
2026-05-05 06:15 22.62820 114.35669 10825 ft 283 kts 260°
2026-05-05 06:15 22.62534 114.33598 10302 ft 276 kts 260°
2026-05-05 06:16 22.62250 114.31545 9946 ft 274 kts 260°
2026-05-05 06:16 22.61968 114.29497 9826 ft 275 kts 260°
2026-05-05 06:16 22.61686 114.27451 9694 ft 275 kts 260°
2026-05-05 06:16 22.61404 114.25403 9570 ft 275 kts 260°
2026-05-05 06:17 22.61126 114.23388 9444 ft 275 kts 260°
2026-05-05 06:17 22.60845 114.21345 9248 ft 276 kts 260°
2026-05-05 06:17 22.60558 114.19257 8629 ft 279 kts 260°
2026-05-05 06:17 22.60275 114.17197 8073 ft 272 kts 260°
2026-05-05 06:18 22.60009 114.15246 7884 ft 253 kts 260°
2026-05-05 06:18 22.59757 114.13408 7760 ft 242 kts 260°
2026-05-05 06:18 22.59510 114.11605 7650 ft 247 kts 260°
2026-05-05 06:18 22.59075 114.09813 7513 ft 248 kts 246°
2026-05-05 06:19 22.58294 114.08148 7120 ft 248 kts 242°
2026-05-05 06:19 22.57497 114.06505 6758 ft 246 kts 242°
2026-05-05 06:19 22.56705 114.04873 6400 ft 245 kts 242°
2026-05-05 06:19 22.55916 114.03245 6034 ft 244 kts 242°
2026-05-05 06:20 22.55134 114.01631 5683 ft 243 kts 242°
2026-05-05 06:20 22.54351 114.00015 5321 ft 242 kts 242°
2026-05-05 06:20 22.53569 113.98399 4953 ft 242 kts 242°
2026-05-05 06:20 22.52805 113.96787 4548 ft 241 kts 243°
2026-05-05 06:21 22.52104 113.95225 4181 ft 241 kts 244°
2026-05-05 06:21 22.51355 113.93573 3750 ft 241 kts 245°
2026-05-05 06:21 22.50924 113.91828 3342 ft 242 kts 265°
2026-05-05 06:21 22.51063 113.90023 2829 ft 243 kts 285°
2026-05-05 06:22 22.51775 113.88392 2418 ft 240 kts 306°
2026-05-05 06:22 22.52906 113.87167 2126 ft 221 kts 326°
2026-05-05 06:22 22.54210 113.86384 1855 ft 209 kts 335°
2026-05-05 06:22 22.55481 113.85690 1583 ft 200 kts 335°
2026-05-05 06:23 22.56663 113.85042 1350 ft 186 kts 334°
2026-05-05 06:23 22.57750 113.84447 1104 ft 166 kts 334°
2026-05-05 06:23 22.58745 113.83902 884 ft 153 kts 335°
2026-05-05 06:23 22.59656 113.83403 681 ft 142 kts 336°
2026-05-05 06:24 22.60521 113.82927 494 ft 137 kts 336°
2026-05-05 06:24 22.61366 113.82468 308 ft 135 kts 335°
2026-05-05 06:24 22.62207 113.82007 155 ft 136 kts 335°
2026-05-05 06:24 22.63043 113.81542 19 ft 130 kts 335°
2026-05-05 06:25 22.63711 113.81187 15 ft 82 kts 333°
2026-05-05 06:25 22.64066 113.80989 15 ft 38 kts 330°
2026-05-05 06:25 22.64278 113.80829 17 ft 36 kts 317°
2026-05-05 06:25 22.64321 113.80769 17 ft 0 kts 304°